Year,Month,Day,Hour,Minute,Value (Times are PST for temperature in C)
2007,06,19,00,00,9.80
2007,06,19,00,01,9.80
2007,06,19,00,02,9.80
2007,06,19,00,03,9.70
2007,06,19,00,04,9.70
2007,06,19,00,05,9.70
2007,06,19,00,06,9.70
2007,06,19,00,07,9.70
2007,06,19,00,08,9.70
2007,06,19,00,09,9.70
2007,06,19,00,10,9.70
2007,06,19,00,11,9.70
2007,06,19,00,12,9.70
2007,06,19,00,13,9.70
2007,06,19,00,14,9.80
2007,06,19,00,15,9.80
2007,06,19,00,16,9.80
2007,06,19,00,17,9.80
2007,06,19,00,18,9.80
2007,06,19,00,19,9.80
2007,06,19,00,20,9.80
2007,06,19,00,21,9.80
2007,06,19,00,22,9.80
2007,06,19,00,23,9.70
2007,06,19,00,24,9.70
2007,06,19,00,25,9.70
2007,06,19,00,26,9.70
2007,06,19,00,27,9.70
2007,06,19,00,28,9.70
2007,06,19,00,29,9.70
2007,06,19,00,30,9.70
2007,06,19,00,31,9.70
2007,06,19,00,32,9.70
2007,06,19,00,33,9.60
2007,06,19,00,34,9.60
2007,06,19,00,35,9.60
2007,06,19,00,36,9.60
2007,06,19,00,37,9.60
2007,06,19,00,38,9.60
2007,06,19,00,39,9.60
2007,06,19,00,40,9.60
2007,06,19,00,41,9.60
2007,06,19,00,42,9.60
2007,06,19,00,43,9.60
2007,06,19,00,44,9.60
2007,06,19,00,45,9.50
2007,06,19,00,46,9.50
2007,06,19,00,47,9.50
2007,06,19,00,48,9.50
2007,06,19,00,49,9.50
2007,06,19,00,50,9.50
2007,06,19,00,51,9.50
2007,06,19,00,52,9.50
2007,06,19,00,53,9.50
2007,06,19,00,54,9.50
2007,06,19,00,55,9.50
2007,06,19,00,56,9.40
2007,06,19,00,57,9.40
2007,06,19,00,58,9.40
2007,06,19,00,59,9.40
2007,06,19,01,00,9.40
2007,06,19,01,01,9.40
2007,06,19,01,02,9.40
2007,06,19,01,03,9.40
2007,06,19,01,04,9.40
2007,06,19,01,05,9.40
2007,06,19,01,06,9.40
2007,06,19,01,07,9.30
2007,06,19,01,08,9.30
2007,06,19,01,09,9.30
2007,06,19,01,10,9.30
2007,06,19,01,11,9.30
2007,06,19,01,12,9.30
2007,06,19,01,13,9.30
2007,06,19,01,14,9.30
2007,06,19,01,15,9.30
2007,06,19,01,16,9.30
2007,06,19,01,17,9.30
2007,06,19,01,18,9.30
2007,06,19,01,19,9.30
2007,06,19,01,20,9.40
2007,06,19,01,21,9.40
2007,06,19,01,22,9.30
2007,06,19,01,23,9.30
2007,06,19,01,24,9.30
2007,06,19,01,25,9.30
2007,06,19,01,26,9.30
2007,06,19,01,27,9.20
2007,06,19,01,28,9.20
2007,06,19,01,29,9.20
2007,06,19,01,30,9.20
2007,06,19,01,31,9.20
2007,06,19,01,32,9.20
2007,06,19,01,33,9.20
2007,06,19,01,34,9.20
2007,06,19,01,35,9.20
2007,06,19,01,36,9.20
2007,06,19,01,37,9.20
2007,06,19,01,38,9.20
2007,06,19,01,39,9.20
2007,06,19,01,40,9.20
2007,06,19,01,41,9.20
2007,06,19,01,42,9.20
2007,06,19,01,43,9.20
2007,06,19,01,44,9.20
2007,06,19,01,45,9.20
2007,06,19,01,46,9.10
2007,06,19,01,47,9.10
2007,06,19,01,48,9.10
2007,06,19,01,49,9.00
2007,06,19,01,50,9.00
2007,06,19,01,51,9.00
2007,06,19,01,52,9.00
2007,06,19,01,53,9.00
2007,06,19,01,54,9.00
2007,06,19,01,55,9.10
2007,06,19,01,56,9.10
2007,06,19,01,57,9.10
2007,06,19,01,58,9.10
2007,06,19,01,59,9.10
2007,06,19,02,00,9.00
2007,06,19,02,01,9.00
2007,06,19,02,02,8.90
2007,06,19,02,03,8.90
2007,06,19,02,04,8.80
2007,06,19,02,05,8.80
2007,06,19,02,06,8.80
2007,06,19,02,07,8.80
2007,06,19,02,08,8.70
2007,06,19,02,09,8.60
2007,06,19,02,10,8.50
2007,06,19,02,11,8.50
2007,06,19,02,12,8.40
2007,06,19,02,13,8.40
2007,06,19,02,14,8.40
2007,06,19,02,15,8.30
2007,06,19,02,16,8.30
2007,06,19,02,17,8.30
2007,06,19,02,18,8.30
2007,06,19,02,19,8.30
2007,06,19,02,20,8.30
2007,06,19,02,21,8.30
2007,06,19,02,22,8.20
2007,06,19,02,23,8.20
2007,06,19,02,24,8.20
2007,06,19,02,25,8.20
2007,06,19,02,26,8.20
2007,06,19,02,27,8.20
2007,06,19,02,28,8.20
2007,06,19,02,29,8.20
2007,06,19,02,30,8.20
2007,06,19,02,31,8.20
2007,06,19,02,32,8.20
2007,06,19,02,33,8.20
2007,06,19,02,34,8.20
2007,06,19,02,35,8.20
2007,06,19,02,36,8.20
2007,06,19,02,37,8.20
2007,06,19,02,38,8.20
2007,06,19,02,39,8.20
2007,06,19,02,40,8.30
2007,06,19,02,41,8.30
2007,06,19,02,42,8.30
2007,06,19,02,43,8.30
2007,06,19,02,44,8.30
2007,06,19,02,45,8.40
2007,06,19,02,46,8.40
2007,06,19,02,47,8.30
2007,06,19,02,48,8.30
2007,06,19,02,49,8.30
2007,06,19,02,50,8.30
2007,06,19,02,51,8.30
2007,06,19,02,52,8.20
2007,06,19,02,53,8.20
2007,06,19,02,54,8.20
2007,06,19,02,55,8.20
2007,06,19,02,56,8.20
2007,06,19,02,57,8.20
2007,06,19,02,58,8.20
2007,06,19,02,59,8.20
2007,06,19,03,00,8.30
2007,06,19,03,01,8.30
2007,06,19,03,02,8.30
2007,06,19,03,03,8.30
2007,06,19,03,04,8.30
2007,06,19,03,05,8.30
2007,06,19,03,06,8.20
2007,06,19,03,07,8.20
2007,06,19,03,08,8.20
2007,06,19,03,09,8.20
2007,06,19,03,10,8.20
2007,06,19,03,11,8.20
2007,06,19,03,12,8.20
2007,06,19,03,13,8.10
2007,06,19,03,14,8.10
2007,06,19,03,15,8.10
2007,06,19,03,16,8.10
2007,06,19,03,17,8.10
2007,06,19,03,18,8.20
2007,06,19,03,19,8.20
2007,06,19,03,20,8.20
2007,06,19,03,21,8.20
2007,06,19,03,22,8.20
2007,06,19,03,23,8.20
2007,06,19,03,24,8.20
2007,06,19,03,25,8.10
2007,06,19,03,26,8.10
2007,06,19,03,27,8.10
2007,06,19,03,28,8.00
2007,06,19,03,29,7.90
2007,06,19,03,30,7.90
2007,06,19,03,31,7.80
2007,06,19,03,32,7.80
2007,06,19,03,33,7.80
2007,06,19,03,34,7.80
2007,06,19,03,35,7.70
2007,06,19,03,36,7.70
2007,06,19,03,37,7.70
2007,06,19,03,38,7.70
2007,06,19,03,39,7.70
2007,06,19,03,40,7.70
2007,06,19,03,41,7.70
2007,06,19,03,42,7.80
2007,06,19,03,43,7.80
2007,06,19,03,44,7.80
2007,06,19,03,45,7.80
2007,06,19,03,46,7.90
2007,06,19,03,47,7.90
2007,06,19,03,48,7.90
2007,06,19,03,49,8.00
2007,06,19,03,50,8.00
2007,06,19,03,51,8.00
2007,06,19,03,52,8.00
2007,06,19,03,53,8.00
2007,06,19,03,54,8.10
2007,06,19,03,55,8.10
2007,06,19,03,56,8.10
2007,06,19,03,57,8.10
2007,06,19,03,58,8.10
2007,06,19,03,59,8.10
2007,06,19,04,00,8.10
2007,06,19,04,01,8.20
2007,06,19,04,02,8.20
2007,06,19,04,03,8.20
2007,06,19,04,04,8.20
2007,06,19,04,05,8.20
2007,06,19,04,06,8.20
2007,06,19,04,07,8.20
2007,06,19,04,08,8.30
2007,06,19,04,09,8.30
2007,06,19,04,10,8.30
2007,06,19,04,11,8.30
2007,06,19,04,12,8.30
2007,06,19,04,13,8.40
2007,06,19,04,14,8.30
2007,06,19,04,15,8.40
2007,06,19,04,16,8.40
2007,06,19,04,17,8.40
2007,06,19,04,18,8.40
2007,06,19,04,19,8.40
2007,06,19,04,20,8.40
2007,06,19,04,21,8.50
2007,06,19,04,22,8.50
2007,06,19,04,23,8.50
2007,06,19,04,24,8.50
2007,06,19,04,25,8.50
2007,06,19,04,26,8.50
2007,06,19,04,27,8.50
2007,06,19,04,28,8.40
2007,06,19,04,29,8.40
2007,06,19,04,30,8.40
2007,06,19,04,31,8.40
2007,06,19,04,32,8.40
2007,06,19,04,33,8.40
2007,06,19,04,34,8.40
2007,06,19,04,35,8.30
2007,06,19,04,36,8.30
2007,06,19,04,37,8.30
2007,06,19,04,38,8.30
2007,06,19,04,39,8.30
2007,06,19,04,40,8.40
2007,06,19,04,41,8.40
2007,06,19,04,42,8.40
2007,06,19,04,43,8.40
2007,06,19,04,44,8.40
2007,06,19,04,45,8.40
2007,06,19,04,46,8.40
2007,06,19,04,47,8.50
2007,06,19,04,48,8.50
2007,06,19,04,49,8.50
2007,06,19,04,50,8.50
2007,06,19,04,51,8.40
2007,06,19,04,52,8.40
2007,06,19,04,53,8.40
2007,06,19,04,54,8.40
2007,06,19,04,55,8.40
2007,06,19,04,56,8.40
2007,06,19,04,57,8.40
2007,06,19,04,58,8.40
2007,06,19,04,59,8.40
2007,06,19,05,00,8.40
2007,06,19,05,01,8.40
2007,06,19,05,02,8.40
2007,06,19,05,03,8.40
2007,06,19,05,04,8.40
2007,06,19,05,05,8.30
2007,06,19,05,06,8.30
2007,06,19,05,07,8.30
2007,06,19,05,08,8.30
2007,06,19,05,09,8.30
2007,06,19,05,10,8.30
2007,06,19,05,11,8.20
2007,06,19,05,12,8.20
2007,06,19,05,13,8.20
2007,06,19,05,14,8.20
2007,06,19,05,15,8.20
2007,06,19,05,16,8.20
2007,06,19,05,17,8.20
2007,06,19,05,18,8.20
2007,06,19,05,19,8.20
2007,06,19,05,20,8.20
2007,06,19,05,21,8.20
2007,06,19,05,22,8.20
2007,06,19,05,23,8.20
2007,06,19,05,24,8.20
2007,06,19,05,25,8.20
2007,06,19,05,26,8.20
2007,06,19,05,27,8.20
2007,06,19,05,28,8.20
2007,06,19,05,29,8.20
2007,06,19,05,30,8.20
2007,06,19,05,31,8.20
2007,06,19,05,32,8.20
2007,06,19,05,33,8.10
2007,06,19,05,34,8.10
2007,06,19,05,35,8.10
2007,06,19,05,36,8.10
2007,06,19,05,37,8.10
2007,06,19,05,38,8.10
2007,06,19,05,39,8.00
2007,06,19,05,40,8.00
2007,06,19,05,41,8.00
2007,06,19,05,42,8.00
2007,06,19,05,43,8.00
2007,06,19,05,44,8.00
2007,06,19,05,45,8.00
2007,06,19,05,46,8.00
2007,06,19,05,47,8.00
2007,06,19,05,48,8.00
2007,06,19,05,49,8.00
2007,06,19,05,50,8.00
2007,06,19,05,51,8.00
2007,06,19,05,52,8.10
2007,06,19,05,53,8.10
2007,06,19,05,54,8.10
2007,06,19,05,55,8.20
2007,06,19,05,56,8.20
2007,06,19,05,57,8.20
2007,06,19,05,58,8.20
2007,06,19,05,59,8.20
2007,06,19,06,00,8.30
2007,06,19,06,01,8.40
2007,06,19,06,02,8.40
2007,06,19,06,03,8.50
2007,06,19,06,04,8.50
2007,06,19,06,05,8.50
2007,06,19,06,06,8.60
2007,06,19,06,07,8.60
2007,06,19,06,08,8.60
2007,06,19,06,09,8.60
2007,06,19,06,10,8.70
2007,06,19,06,11,8.70
2007,06,19,06,12,8.70
2007,06,19,06,13,8.70
2007,06,19,06,14,8.80
2007,06,19,06,15,8.90
2007,06,19,06,16,8.90
2007,06,19,06,17,9.00
2007,06,19,06,18,9.10
2007,06,19,06,19,9.20
2007,06,19,06,20,9.20
2007,06,19,06,21,9.20
2007,06,19,06,22,9.30
2007,06,19,06,23,9.30
2007,06,19,06,24,9.30
2007,06,19,06,25,9.30
2007,06,19,06,26,9.30
2007,06,19,06,27,9.30
2007,06,19,06,28,9.30
2007,06,19,06,29,9.20
2007,06,19,06,30,9.20
2007,06,19,06,31,9.20
2007,06,19,06,32,9.20
2007,06,19,06,33,9.20
2007,06,19,06,34,9.20
2007,06,19,06,35,9.20
2007,06,19,06,36,9.30
2007,06,19,06,37,9.30
2007,06,19,06,38,9.30
2007,06,19,06,39,9.30
2007,06,19,06,40,9.30
2007,06,19,06,41,9.30
2007,06,19,06,42,9.40
2007,06,19,06,43,9.40
2007,06,19,06,44,9.40
2007,06,19,06,45,9.40
2007,06,19,06,46,9.50
2007,06,19,06,47,9.50
2007,06,19,06,48,9.50
2007,06,19,06,49,9.60
2007,06,19,06,50,9.60
2007,06,19,06,51,9.60
2007,06,19,06,52,9.60
2007,06,19,06,53,9.60
2007,06,19,06,54,9.60
2007,06,19,06,55,9.60
2007,06,19,06,56,9.70
2007,06,19,06,57,9.70
2007,06,19,06,58,9.70
2007,06,19,06,59,9.70
2007,06,19,07,00,9.70
2007,06,19,07,01,9.70
2007,06,19,07,02,9.70
2007,06,19,07,03,9.70
2007,06,19,07,04,9.80
2007,06,19,07,05,9.90
2007,06,19,07,06,9.90
2007,06,19,07,07,9.90
2007,06,19,07,08,10.10
2007,06,19,07,09,10.10
2007,06,19,07,10,10.10
2007,06,19,07,11,10.10
2007,06,19,07,12,10.10
2007,06,19,07,13,10.20
2007,06,19,07,14,10.20
2007,06,19,07,15,10.20
2007,06,19,07,16,10.30
2007,06,19,07,17,10.30
2007,06,19,07,18,10.30
2007,06,19,07,19,10.40
2007,06,19,07,20,10.40
2007,06,19,07,21,10.50
2007,06,19,07,22,10.60
2007,06,19,07,23,10.60
2007,06,19,07,24,10.70
2007,06,19,07,25,10.80
2007,06,19,07,26,10.80
2007,06,19,07,27,10.90
2007,06,19,07,28,10.90
2007,06,19,07,29,11.00
2007,06,19,07,30,11.10
2007,06,19,07,31,11.10
2007,06,19,07,32,11.20
2007,06,19,07,33,11.40
2007,06,19,07,34,11.50
2007,06,19,07,35,11.70
2007,06,19,07,36,11.80
2007,06,19,07,37,12.00
2007,06,19,07,38,12.00
2007,06,19,07,39,12.10
2007,06,19,07,40,12.20
2007,06,19,07,41,12.30
2007,06,19,07,42,12.40
2007,06,19,07,43,12.50
2007,06,19,07,44,12.60
2007,06,19,07,45,12.60
2007,06,19,07,46,12.70
2007,06,19,07,47,12.80
2007,06,19,07,48,12.90
2007,06,19,07,49,13.00
2007,06,19,07,50,13.10
2007,06,19,07,51,13.20
2007,06,19,07,52,13.30
2007,06,19,07,53,13.30
2007,06,19,07,54,13.40
2007,06,19,07,55,13.50
2007,06,19,07,56,13.50
2007,06,19,07,57,13.60
2007,06,19,07,58,13.60
2007,06,19,07,59,13.60
2007,06,19,08,00,13.60
2007,06,19,08,01,13.70
2007,06,19,08,02,13.70
2007,06,19,08,03,13.70
2007,06,19,08,04,13.70
2007,06,19,08,05,13.70
2007,06,19,08,06,13.70
2007,06,19,08,07,13.70
2007,06,19,08,08,13.70
2007,06,19,08,09,13.60
2007,06,19,08,10,13.60
2007,06,19,08,11,13.60
2007,06,19,08,12,13.70
2007,06,19,08,13,13.70
2007,06,19,08,14,13.70
2007,06,19,08,15,13.80
2007,06,19,08,16,13.90
2007,06,19,08,17,14.00
2007,06,19,08,18,14.00
2007,06,19,08,19,14.00
2007,06,19,08,20,14.10
2007,06,19,08,21,14.00
2007,06,19,08,22,14.00
2007,06,19,08,23,14.10
2007,06,19,08,24,14.10
2007,06,19,08,25,14.20
2007,06,19,08,26,14.20
2007,06,19,08,27,14.20
2007,06,19,08,28,14.20
2007,06,19,08,29,14.20
2007,06,19,08,30,14.20
2007,06,19,08,31,14.20
2007,06,19,08,32,14.20
2007,06,19,08,33,14.30
2007,06,19,08,34,14.30
2007,06,19,08,35,14.40
2007,06,19,08,36,14.50
2007,06,19,08,37,14.50
2007,06,19,08,38,14.50
2007,06,19,08,39,14.60
2007,06,19,08,40,14.60
2007,06,19,08,41,14.60
2007,06,19,08,42,14.80
2007,06,19,08,43,14.80
2007,06,19,08,44,14.90
2007,06,19,08,45,14.90
2007,06,19,08,46,15.00
2007,06,19,08,47,15.00
2007,06,19,08,48,14.90
2007,06,19,08,49,14.80
2007,06,19,08,50,14.70
2007,06,19,08,51,14.70
2007,06,19,08,52,14.70
2007,06,19,08,53,14.80
2007,06,19,08,54,14.70
2007,06,19,08,55,14.70
2007,06,19,08,56,14.70
2007,06,19,08,57,14.70
2007,06,19,08,58,14.70
2007,06,19,08,59,14.60
2007,06,19,09,00,14.70
2007,06,19,09,01,14.70
2007,06,19,09,02,14.80
2007,06,19,09,03,15.00
2007,06,19,09,04,15.00
2007,06,19,09,05,15.10
2007,06,19,09,06,15.20
2007,06,19,09,07,15.30
2007,06,19,09,08,15.30
2007,06,19,09,09,15.30
2007,06,19,09,10,15.30
2007,06,19,09,11,15.30
2007,06,19,09,12,15.30
2007,06,19,09,13,15.30
2007,06,19,09,14,15.30
2007,06,19,09,15,15.20
2007,06,19,09,16,15.10
2007,06,19,09,17,15.00
2007,06,19,09,18,14.90
2007,06,19,09,19,14.80
2007,06,19,09,20,14.70
2007,06,19,09,21,14.50
2007,06,19,09,22,14.50
2007,06,19,09,23,14.30
2007,06,19,09,24,14.20
2007,06,19,09,25,14.20
2007,06,19,09,26,14.20
2007,06,19,09,27,14.20
2007,06,19,09,28,14.20
2007,06,19,09,29,14.20
2007,06,19,09,30,14.20
2007,06,19,09,31,14.20
2007,06,19,09,32,14.20
2007,06,19,09,33,14.20
2007,06,19,09,34,14.20
2007,06,19,09,35,14.20
2007,06,19,09,36,14.20
2007,06,19,09,37,14.20
2007,06,19,09,38,14.20
2007,06,19,09,39,14.20
2007,06,19,09,40,14.20
2007,06,19,09,41,14.20
2007,06,19,09,42,14.20
2007,06,19,09,43,14.20
2007,06,19,09,44,14.20
2007,06,19,09,45,14.20
2007,06,19,09,46,14.20
2007,06,19,09,47,14.20
2007,06,19,09,48,14.20
2007,06,19,09,49,14.20
2007,06,19,09,50,14.20
2007,06,19,09,51,14.20
2007,06,19,09,52,14.20
2007,06,19,09,53,14.30
2007,06,19,09,54,14.40
2007,06,19,09,55,14.50
2007,06,19,09,56,14.70
2007,06,19,09,57,14.90
2007,06,19,09,58,15.00
2007,06,19,09,59,15.00
2007,06,19,10,00,15.10
2007,06,19,10,01,15.20
2007,06,19,10,02,15.30
2007,06,19,10,03,15.30
2007,06,19,10,04,15.30
2007,06,19,10,05,15.30
2007,06,19,10,06,15.30
2007,06,19,10,07,15.20
2007,06,19,10,08,15.20
2007,06,19,10,09,15.20
2007,06,19,10,10,15.00
2007,06,19,10,11,14.80
2007,06,19,10,12,14.60
2007,06,19,10,13,14.50
2007,06,19,10,14,14.50
2007,06,19,10,15,14.50
2007,06,19,10,16,14.60
2007,06,19,10,17,14.60
2007,06,19,10,18,14.70
2007,06,19,10,19,14.60
2007,06,19,10,20,14.70
2007,06,19,10,21,14.60
2007,06,19,10,22,14.60
2007,06,19,10,23,14.60
2007,06,19,10,24,14.60
2007,06,19,10,25,14.70
2007,06,19,10,26,14.80
2007,06,19,10,27,14.90
2007,06,19,10,28,15.00
2007,06,19,10,29,15.10
2007,06,19,10,30,15.30
2007,06,19,10,31,15.40
2007,06,19,10,32,15.50
2007,06,19,10,33,15.60
2007,06,19,10,34,15.60
2007,06,19,10,35,15.60
2007,06,19,10,36,15.60
2007,06,19,10,37,15.50
2007,06,19,10,38,15.40
2007,06,19,10,39,15.30
2007,06,19,10,40,15.30
2007,06,19,10,41,15.30
2007,06,19,10,42,15.30
2007,06,19,10,43,15.20
2007,06,19,10,44,15.20
2007,06,19,10,45,15.20
2007,06,19,10,46,15.20
2007,06,19,10,47,15.20
2007,06,19,10,48,15.20
2007,06,19,10,49,15.20
2007,06,19,10,50,15.20
2007,06,19,10,51,15.20
2007,06,19,10,52,15.10
2007,06,19,10,53,15.20
2007,06,19,10,54,15.20
2007,06,19,10,55,15.20
2007,06,19,10,56,15.20
2007,06,19,10,57,15.30
2007,06,19,10,58,15.50
2007,06,19,10,59,15.70
2007,06,19,11,00,15.80
2007,06,19,11,01,15.90
2007,06,19,11,02,16.00
2007,06,19,11,03,16.00
2007,06,19,11,04,15.90
2007,06,19,11,05,15.80
2007,06,19,11,06,15.80
2007,06,19,11,07,15.80
2007,06,19,11,08,15.90
2007,06,19,11,09,15.90
2007,06,19,11,10,15.90
2007,06,19,11,11,15.80
2007,06,19,11,12,15.80
2007,06,19,11,13,15.80
2007,06,19,11,14,15.90
2007,06,19,11,15,15.90
2007,06,19,11,16,15.90
2007,06,19,11,17,16.00
2007,06,19,11,18,16.10
2007,06,19,11,19,16.20
2007,06,19,11,20,16.20
2007,06,19,11,21,16.30
2007,06,19,11,22,16.30
2007,06,19,11,23,16.40
2007,06,19,11,24,16.60
2007,06,19,11,25,16.60
2007,06,19,11,26,16.60
2007,06,19,11,27,16.60
2007,06,19,11,28,16.60
2007,06,19,11,29,16.50
2007,06,19,11,30,16.60
2007,06,19,11,31,16.60
2007,06,19,11,32,16.60
2007,06,19,11,33,16.70
2007,06,19,11,34,16.70
2007,06,19,11,35,16.70
2007,06,19,11,36,16.70
2007,06,19,11,37,16.70
2007,06,19,11,38,16.70
2007,06,19,11,39,16.50
2007,06,19,11,40,16.50
2007,06,19,11,41,16.60
2007,06,19,11,42,16.60
2007,06,19,11,43,16.60
2007,06,19,11,44,16.60
2007,06,19,11,45,16.60
2007,06,19,11,46,16.60
2007,06,19,11,47,16.90
2007,06,19,11,48,16.90
2007,06,19,11,49,17.00
2007,06,19,11,50,16.80
2007,06,19,11,51,16.60
2007,06,19,11,52,16.40
2007,06,19,11,53,16.40
2007,06,19,11,54,16.50
2007,06,19,11,55,16.70
2007,06,19,11,56,16.70
2007,06,19,11,57,16.80
2007,06,19,11,58,16.70
2007,06,19,11,59,16.70
2007,06,19,12,00,16.60
2007,06,19,12,01,16.40
2007,06,19,12,02,16.40
2007,06,19,12,03,16.50
2007,06,19,12,04,16.60
2007,06,19,12,05,16.50
2007,06,19,12,06,16.40
2007,06,19,12,07,16.40
2007,06,19,12,08,16.40
2007,06,19,12,09,16.40
2007,06,19,12,10,16.40
2007,06,19,12,11,16.40
2007,06,19,12,12,16.40
2007,06,19,12,13,16.50
2007,06,19,12,14,16.60
2007,06,19,12,15,16.60
2007,06,19,12,16,16.60
2007,06,19,12,17,16.50
2007,06,19,12,18,16.40
2007,06,19,12,19,16.40
2007,06,19,12,20,16.30
2007,06,19,12,21,16.30
2007,06,19,12,22,16.30
2007,06,19,12,23,16.30
2007,06,19,12,24,16.30
2007,06,19,12,25,16.30
2007,06,19,12,26,16.30
2007,06,19,12,27,16.30
2007,06,19,12,28,16.80
2007,06,19,12,29,16.90
2007,06,19,12,30,16.90
2007,06,19,12,31,16.90
2007,06,19,12,32,16.70
2007,06,19,12,33,16.70
2007,06,19,12,34,16.70
2007,06,19,12,35,16.60
2007,06,19,12,36,16.60
2007,06,19,12,37,16.70
2007,06,19,12,38,16.70
2007,06,19,12,39,16.70
2007,06,19,12,40,16.70
2007,06,19,12,41,16.70
2007,06,19,12,42,16.80
2007,06,19,12,43,16.80
2007,06,19,12,44,16.70
2007,06,19,12,45,16.80
2007,06,19,12,46,16.90
2007,06,19,12,47,16.90
2007,06,19,12,48,16.90
2007,06,19,12,49,16.90
2007,06,19,12,50,16.80
2007,06,19,12,51,16.80
2007,06,19,12,52,16.80
2007,06,19,12,53,16.70
2007,06,19,12,54,16.70
2007,06,19,12,55,16.70
2007,06,19,12,56,16.80
2007,06,19,12,57,16.90
2007,06,19,12,58,17.10
2007,06,19,12,59,17.20
2007,06,19,13,00,17.30
2007,06,19,13,01,17.30
2007,06,19,13,02,17.30
2007,06,19,13,03,17.30
2007,06,19,13,04,17.30
2007,06,19,13,05,17.30
2007,06,19,13,06,17.30
2007,06,19,13,07,17.30
2007,06,19,13,08,17.30
2007,06,19,13,09,17.20
2007,06,19,13,10,17.10
2007,06,19,13,11,17.00
2007,06,19,13,12,17.10
2007,06,19,13,13,17.10
2007,06,19,13,14,17.10
2007,06,19,13,15,17.10
2007,06,19,13,16,17.10
2007,06,19,13,17,17.20
2007,06,19,13,18,17.30
2007,06,19,13,19,17.30
2007,06,19,13,20,17.30
2007,06,19,13,21,17.20
2007,06,19,13,22,17.10
2007,06,19,13,23,17.20
2007,06,19,13,24,17.30
2007,06,19,13,25,17.30
2007,06,19,13,26,17.30
2007,06,19,13,27,17.40
2007,06,19,13,28,17.40
2007,06,19,13,29,17.40
2007,06,19,13,30,17.40
2007,06,19,13,31,17.50
2007,06,19,13,32,17.60
2007,06,19,13,33,17.70
2007,06,19,13,34,17.70
2007,06,19,13,35,17.60
2007,06,19,13,36,17.40
2007,06,19,13,37,17.30
2007,06,19,13,38,17.50
2007,06,19,13,39,17.60
2007,06,19,13,40,17.60
2007,06,19,13,41,17.60
2007,06,19,13,42,17.60
2007,06,19,13,43,17.60
2007,06,19,13,44,17.60
2007,06,19,13,45,17.70
2007,06,19,13,46,17.70
2007,06,19,13,47,17.70
2007,06,19,13,48,17.60
2007,06,19,13,49,17.60
2007,06,19,13,50,17.70
2007,06,19,13,51,17.80
2007,06,19,13,52,18.00
2007,06,19,13,53,18.10
2007,06,19,13,54,18.20
2007,06,19,13,55,18.10
2007,06,19,13,56,18.10
2007,06,19,13,57,18.10
2007,06,19,13,58,18.00
2007,06,19,13,59,17.90
2007,06,19,14,00,17.80
2007,06,19,14,01,17.80
2007,06,19,14,02,17.70
2007,06,19,14,03,17.70
2007,06,19,14,04,17.70
2007,06,19,14,05,17.60
2007,06,19,14,06,17.50
2007,06,19,14,07,17.30
2007,06,19,14,08,17.30
2007,06,19,14,09,17.30
2007,06,19,14,10,17.50
2007,06,19,14,11,17.50
2007,06,19,14,12,17.60
2007,06,19,14,13,17.70
2007,06,19,14,14,17.70
2007,06,19,14,15,17.70
2007,06,19,14,16,17.80
2007,06,19,14,17,17.90
2007,06,19,14,18,17.90
2007,06,19,14,19,17.80
2007,06,19,14,20,17.70
2007,06,19,14,21,17.80
2007,06,19,14,22,17.80
2007,06,19,14,23,17.90
2007,06,19,14,24,17.80
2007,06,19,14,25,17.70
2007,06,19,14,26,17.60
2007,06,19,14,27,17.50
2007,06,19,14,28,17.50
2007,06,19,14,29,17.50
2007,06,19,14,30,17.50
2007,06,19,14,31,17.60
2007,06,19,14,32,17.60
2007,06,19,14,33,17.50
2007,06,19,14,34,17.50
2007,06,19,14,35,17.50
2007,06,19,14,36,17.40
2007,06,19,14,37,17.30
2007,06,19,14,38,17.20
2007,06,19,14,39,17.20
2007,06,19,14,40,17.20
2007,06,19,14,41,17.20
2007,06,19,14,42,17.20
2007,06,19,14,43,17.30
2007,06,19,14,44,17.30
2007,06,19,14,45,17.30
2007,06,19,14,46,17.30
2007,06,19,14,47,17.30
2007,06,19,14,48,17.30
2007,06,19,14,49,17.30
2007,06,19,14,50,17.40
2007,06,19,14,51,17.40
2007,06,19,14,52,17.40
2007,06,19,14,53,17.40
2007,06,19,14,54,17.40
2007,06,19,14,55,17.30
2007,06,19,14,56,17.20
2007,06,19,14,57,17.10
2007,06,19,14,58,17.00
2007,06,19,14,59,16.90
2007,06,19,15,00,16.70
2007,06,19,15,01,16.60
2007,06,19,15,02,16.40
2007,06,19,15,03,16.30
2007,06,19,15,04,16.30
2007,06,19,15,05,16.40
2007,06,19,15,06,16.40
2007,06,19,15,07,16.40
2007,06,19,15,08,16.50
2007,06,19,15,09,16.60
2007,06,19,15,10,16.60
2007,06,19,15,11,16.70
2007,06,19,15,12,16.80
2007,06,19,15,13,16.90
2007,06,19,15,14,17.00
2007,06,19,15,15,16.90
2007,06,19,15,16,16.80
2007,06,19,15,17,16.80
2007,06,19,15,18,16.70
2007,06,19,15,19,16.80
2007,06,19,15,20,16.90
2007,06,19,15,21,17.00
2007,06,19,15,22,17.10
2007,06,19,15,23,17.30
2007,06,19,15,24,17.40
2007,06,19,15,25,17.60
2007,06,19,15,26,17.50
2007,06,19,15,27,17.40
2007,06,19,15,28,17.40
2007,06,19,15,29,17.40
2007,06,19,15,30,17.50
2007,06,19,15,31,17.50
2007,06,19,15,32,17.50
2007,06,19,15,33,17.40
2007,06,19,15,34,17.30
2007,06,19,15,35,17.20
2007,06,19,15,36,17.10
2007,06,19,15,37,17.10
2007,06,19,15,38,17.20
2007,06,19,15,39,17.30
2007,06,19,15,40,17.30
2007,06,19,15,41,17.30
2007,06,19,15,42,17.40
2007,06,19,15,43,17.50
2007,06,19,15,44,17.70
2007,06,19,15,45,17.80
2007,06,19,15,46,17.90
2007,06,19,15,47,17.90
2007,06,19,15,48,17.90
2007,06,19,15,49,17.80
2007,06,19,15,50,17.90
2007,06,19,15,51,17.90
2007,06,19,15,52,17.90
2007,06,19,15,53,17.90
2007,06,19,15,54,17.90
2007,06,19,15,55,18.00
2007,06,19,15,56,18.20
2007,06,19,15,57,18.30
2007,06,19,15,58,18.40
2007,06,19,15,59,18.30
2007,06,19,16,00,18.20
2007,06,19,16,01,18.20
2007,06,19,16,02,18.20
2007,06,19,16,03,18.20
2007,06,19,16,04,18.20
2007,06,19,16,05,18.00
2007,06,19,16,06,17.90
2007,06,19,16,07,17.90
2007,06,19,16,08,17.90
2007,06,19,16,09,17.90
2007,06,19,16,10,18.00
2007,06,19,16,11,18.10
2007,06,19,16,12,18.20
2007,06,19,16,13,18.20
2007,06,19,16,14,18.20
2007,06,19,16,15,18.20
2007,06,19,16,16,18.20
2007,06,19,16,17,18.20
2007,06,19,16,18,18.10
2007,06,19,16,19,18.10
2007,06,19,16,20,18.10
2007,06,19,16,21,18.20
2007,06,19,16,22,18.30
2007,06,19,16,23,18.50
2007,06,19,16,24,18.50
2007,06,19,16,25,18.60
2007,06,19,16,26,18.60
2007,06,19,16,27,18.70
2007,06,19,16,28,18.70
2007,06,19,16,29,18.70
2007,06,19,16,30,18.70
2007,06,19,16,31,18.70
2007,06,19,16,32,18.80
2007,06,19,16,33,18.80
2007,06,19,16,34,18.80
2007,06,19,16,35,18.80
2007,06,19,16,36,18.80
2007,06,19,16,37,18.80
2007,06,19,16,38,18.80
2007,06,19,16,39,18.90
2007,06,19,16,40,19.00
2007,06,19,16,41,19.10
2007,06,19,16,42,19.10
2007,06,19,16,43,19.10
2007,06,19,16,44,19.10
2007,06,19,16,45,19.10
2007,06,19,16,46,19.10
2007,06,19,16,47,19.00
2007,06,19,16,48,19.00
2007,06,19,16,49,19.10
2007,06,19,16,50,19.00
2007,06,19,16,51,19.10
2007,06,19,16,52,19.10
2007,06,19,16,53,19.20
2007,06,19,16,54,19.30
2007,06,19,16,55,19.30
2007,06,19,16,56,19.30
2007,06,19,16,57,19.20
2007,06,19,16,58,19.10
2007,06,19,16,59,19.20
2007,06,19,17,00,19.30
2007,06,19,17,01,19.30
2007,06,19,17,02,19.30
2007,06,19,17,03,19.40
2007,06,19,17,04,19.40
2007,06,19,17,05,19.40
2007,06,19,17,06,19.50
2007,06,19,17,07,19.40
2007,06,19,17,08,19.40
2007,06,19,17,09,19.40
2007,06,19,17,10,19.40
2007,06,19,17,11,19.30
2007,06,19,17,12,19.30
2007,06,19,17,13,19.20
2007,06,19,17,14,19.20
2007,06,19,17,15,19.20
2007,06,19,17,16,19.20
2007,06,19,17,17,19.20
2007,06,19,17,18,19.20
2007,06,19,17,19,19.20
2007,06,19,17,20,19.40
2007,06,19,17,21,19.40
2007,06,19,17,22,19.50
2007,06,19,17,23,19.70
2007,06,19,17,24,19.80
2007,06,19,17,25,19.80
2007,06,19,17,26,19.80
2007,06,19,17,27,19.80
2007,06,19,17,28,19.80
2007,06,19,17,29,19.80
2007,06,19,17,30,19.70
2007,06,19,17,31,19.70
2007,06,19,17,32,19.70
2007,06,19,17,33,19.70
2007,06,19,17,34,19.80
2007,06,19,17,35,19.90
2007,06,19,17,36,20.00
2007,06,19,17,37,20.10
2007,06,19,17,38,20.20